Showing default

CLARITY-1, 63227

Orbit data source: Space-Track

CLARITY-1, 63227 is an American payload satellite in SSO that was launched on Sat, 15 Mar 2025 UTC via an FALCON 9 launch vehicle from the Air Force Western Test Range (AFWTR). Payload-class satellites include a variety of spacecraft equipped with specific instruments for various scientific and technological missions. These include communications satellites like Starlink; space stations such as the ISS; scientific satellites like the Hubble; Earth observation satellites from companies like Planet Labs, Umbra, and HawkEye 360; GPS; miniature CubeSats for education and research; and military/defense satellites.

Loading next visibility...
Identifier
63227, 2025-052T
Orbit
SSO
Country
Flag of USUS
Related business
Manufacturer
ALBEDO
Mission
Operational Commercial Imaging
Bus & Motor
ALBEDO, Unknown motor
Mass
530 kg wet, 485 kg dry
Launch date (UTC)
2025-03-15 (9 months ago)
Launch vehicle
FALCON 9
Launch site
Air Force Western Test Range (AFWTR)
Object type
Payload
Rocket body
Debris
Shape & HBR
Hex Cyl, 1.1 m
Radar Cross Section
2.290 m², Medium (>0.1 m² and < 1m²)

Expand to show TLE details & history
Last TLE update: 18 hours ago

TLE from 18 hours ago
0 CLARITY-1
1 63227U 25052T   25346.98429307  .00065824  00000-0  56448-3 0  9991
2 63227  97.4315 248.1105 0004014  87.5480 272.6241 15.69193480 42199
Epoch: 2025-12-12T23:37Z
TLE epoch observation values (Epoch: 2025-12-12T23:37:22.921Z)
Latitude
-0.00002°
Longitude
171.84692°
Altitude
364.238 km
Speed
7.691 km/s
True Right ascension
16h 32m 26s
True Declination
0° 00' 00"
Sunlit
Object was in daylight at epoch
Visualization orbit readout
Latitude
Unknown
Longitude
Unknown
Altitude
Unknown
Speed
Unknown
Apparent Right ascension
Unknown
Apparent Declination
Unknown
Sunlit
N/A
Visualization observer readout
Local Sidereal Time
16:29:56
Azimuth
Unknown
Elevation
Unknown
Doppler factor
Unknown
Orbital elements
Apogee altitude
360.811 km
Perigee altitude
355.403 km
Semi-major axis
6,736.244 km
Eccentricity
0.0004
Inclination
97.4315°
RAAN
248.1105°
Arg. of periapsis
87.548°
True anomaly
272.57815°
Mean anomaly
272.6241°
Eccentric anomaly
272.60113°
Mean motion
3.92569 °/min
Orbital period
91.7 mins
BSTAR
0.00056448
Loading maneuver chart data...
Computing Atmospheric mass density...
Loading historical data...
Loading historical data...
Loading historical data...
Loading historical data...
Loading historical data...
Loading historical data...
Loading historical data...

Documentation

Showing up to 5 results
|